Regional Weather Roundup
Issued by NWS

Home | Current Version | Previous Version | Text Only | Print | Product List | Glossary Off
Versions: 1 2 3 4 5 6 7 8 9 10 11 12 13 14 15 16 17 18 19 20 21 22 23 24 25 26 27 28 29 30 31 32 33 34 35 36 37 38 39 40 41 42 43 44 45 46 47 48 49 50

000
ASUS45 KCYS 211310
RWRWY

WYOMING REGIONAL WEATHER ROUNDUP
NATIONAL WEATHER SERVICE CHEYENNE WY
600 AM MST TUE FEB 21 2017

NOTE:  "FAIR" INDICATES FEW OR NO CLOUDS BELOW 12,000 FEET
WITH NO SIGNIFICANT WEATHER AND/OR OBSTRUCTIONS TO VISIBILITY.

WYZ001-211400-
YELLOWSTONE NATIONAL PARK

CITY           SKY/WX    TMP DP  RH WIND       PRES   REMARKS
LK YELLOWSTONE   N/A     33  31  92 W9G18     29.86S WCI  25
W YELLOWSTONE  NOT AVBL

$$
WYZ002>013-054>058-071-098>099-211400-
NORTHERN WYOMING

CITY           SKY/WX    TMP DP  RH WIND       PRES   REMARKS
JACKSON        CLOUDY    41  32  70 SW20G39   29.89S
CODY           FAIR      37  32  82 SE8       29.77S WCI  31
GREYBULL       FAIR      43  32  65 S8        29.76F
WORLAND        FAIR      41  34  76 SE12      29.77S
SHERIDAN       FAIR      42  29  59 N9        29.71R
BUFFALO        FAIR      49  28  44 SW13      29.75S
GILLETTE       FAIR      47  32  56 SW29G35   29.73R
HULETT         FAIR      46  32  57 S14       29.77F
NEWCASTLE      FAIR      46  30  53 CALM      29.87S

$$
WYZ014>020-022>026-101>103-211400-
CENTRAL WYOMING

CITY           SKY/WX    TMP DP  RH WIND       PRES   REMARKS
BIG PINEY      CLOUDY    36  32  85 SW20      30.00S WCI  25
PINEDALE       DRIZZLE   36  32  87 SW13G18   30.01S WCI  27
DUBOIS         RAIN      36  30  80 W23G32    29.87R WCI  24
LANDER         LGT RAIN  46  34  62 W14G23    29.89R
RIVERTON       FAIR      40  32  73 W9        29.90R WCI  34
CASPER         LGT RAIN  45  31  58 SW36G46   29.86S
DOUGLAS        FAIR      52  28  39 W32G46    29.85R

$$
WYZ021-027>030-104>119-211400-
SOUTHERN WYOMING

CITY           SKY/WX    TMP DP  RH WIND       PRES   REMARKS
EVANSTON       FAIR      38  30  73 SW28      30.04R WCI  26
KEMMERER         N/A     36  32  87 SW20G26   30.03F WCI  25
FORT BRIDGER   FAIR      41  31  67 SW14      30.08S
ROCK SPRINGS   FAIR      39  29  67 SW14      30.05S WCI  31
DIXON            N/A     42  31  65 S23G35    30.14S
RAWLINS        FAIR      39  30  70 SW25G37   30.07S WCI  28
SARATOGA       FAIR      39  30  70 SW21G28   30.11S WCI  29
LARAMIE        FAIR      39  27  62 W20G28    30.06R WCI  29
CHEYENNE       FAIR      46  27  47 W28G37    30.02R
TORRINGTON     FAIR      40  21  46 VRB3      29.91F
PINE BLUFFS    FAIR      50  27  40 SW12G23   29.99S

$$



USA.gov is the U.S. government's official web portal to all federal, state and local government web resources and services.